Find Tongxin Jishu Shiyan 12

NORAD ID: 62374 Int'l Des: 2024-246 Owner: ZLZB Country: CN operational
HEOCIRCULARGSO

当前视图

正在加载3D地球...

About Tongxin Jishu Shiyan 12

Tongxin Jishu Shiyan 12 (NORAD 62374) is a satellite launched Dec 20, 2024 by ZLZB of CN. It operates in HEO, CIRCULAR, GSO orbit with a mass of 5000.00 kg.

即将过境

Passes for default location (London). Set your location on the main map for personalized predictions.

高度历史

Loading altitude history...

两行轨道根数

1 62374U 24246A 26194.87522416 -.00000236 00000-0 00000+0 0 9998
2 62374 0.6144 301.9238 0001763 96.0718 355.3645 1.00269200 5830
Epoch: Jul 13, 2026 • Age: 14 hours

当前状态

高度 35793.8 km
远地点 / 近地点 N/A
速度 3.07 km/s
星下点 -0.55°S, 146.53°E
发射日期 Dec 20, 2024
运行时间 1.5 years
类型 other

技术详情

分类 Payload
质量 5000.00 kg
干质量 2500.00 kg
总质量 5000.00 kg
长度 5.00 m
直径 2.50 m
跨度 30.00 m
形状 Box + 2 Pan
制造商 SISE
平台类型 FY-4
阶段状态 In Orbit
所有者/国家 ZLZB/CN

Most Searched